Year,Month,Day,Hour,Minute,Value (Times are PST for insolation in W/m^2)
2005,09,04,00,00,0.00
2005,09,04,00,01,0.00
2005,09,04,00,02,0.00
2005,09,04,00,03,0.00
2005,09,04,00,04,0.00
2005,09,04,00,05,0.00
2005,09,04,00,06,0.00
2005,09,04,00,07,0.00
2005,09,04,00,08,0.00
2005,09,04,00,09,0.00
2005,09,04,00,10,0.00
2005,09,04,00,11,0.00
2005,09,04,00,12,0.00
2005,09,04,00,13,0.00
2005,09,04,00,14,0.00
2005,09,04,00,15,0.00
2005,09,04,00,16,0.00
2005,09,04,00,17,0.00
2005,09,04,00,18,0.00
2005,09,04,00,19,0.00
2005,09,04,00,20,0.00
2005,09,04,00,21,0.00
2005,09,04,00,22,0.00
2005,09,04,00,23,0.00
2005,09,04,00,24,0.00
2005,09,04,00,25,0.00
2005,09,04,00,26,0.00
2005,09,04,00,27,0.00
2005,09,04,00,28,0.00
2005,09,04,00,29,0.00
2005,09,04,00,30,0.00
2005,09,04,00,31,0.00
2005,09,04,00,32,0.00
2005,09,04,00,33,0.00
2005,09,04,00,34,0.00
2005,09,04,00,35,0.00
2005,09,04,00,36,0.00
2005,09,04,00,37,0.00
2005,09,04,00,38,0.00
2005,09,04,00,39,0.00
2005,09,04,00,40,0.00
2005,09,04,00,41,0.00
2005,09,04,00,42,0.00
2005,09,04,00,43,0.00
2005,09,04,00,44,0.00
2005,09,04,00,45,0.00
2005,09,04,00,46,0.00
2005,09,04,00,47,0.00
2005,09,04,00,48,0.00
2005,09,04,00,49,0.00
2005,09,04,00,50,0.00
2005,09,04,00,51,0.00
2005,09,04,00,52,0.00
2005,09,04,00,53,0.00
2005,09,04,00,54,0.00
2005,09,04,00,55,0.00
2005,09,04,00,56,0.00
2005,09,04,00,57,0.00
2005,09,04,00,58,0.00
2005,09,04,00,59,0.00
2005,09,04,01,00,0.00
2005,09,04,01,01,0.00
2005,09,04,01,02,0.00
2005,09,04,01,03,0.00
2005,09,04,01,04,0.00
2005,09,04,01,05,0.00
2005,09,04,01,06,0.00
2005,09,04,01,07,0.00
2005,09,04,01,08,0.00
2005,09,04,01,09,0.00
2005,09,04,01,10,0.00
2005,09,04,01,11,0.00
2005,09,04,01,12,0.00
2005,09,04,01,13,0.00
2005,09,04,01,14,0.00
2005,09,04,01,15,0.00
2005,09,04,01,16,0.00
2005,09,04,01,17,0.00
2005,09,04,01,18,0.00
2005,09,04,01,19,0.00
2005,09,04,01,20,0.00
2005,09,04,01,21,0.00
2005,09,04,01,22,0.00
2005,09,04,01,23,0.00
2005,09,04,01,24,0.00
2005,09,04,01,25,0.00
2005,09,04,01,26,0.00
2005,09,04,01,27,0.00
2005,09,04,01,28,0.00
2005,09,04,01,29,0.00
2005,09,04,01,30,0.00
2005,09,04,01,31,0.00
2005,09,04,01,32,0.00
2005,09,04,01,33,0.00
2005,09,04,01,34,0.00
2005,09,04,01,35,0.00
2005,09,04,01,36,0.00
2005,09,04,01,37,0.00
2005,09,04,01,38,0.00
2005,09,04,01,39,0.00
2005,09,04,01,40,0.00
2005,09,04,01,41,0.00
2005,09,04,01,42,0.00
2005,09,04,01,43,0.00
2005,09,04,01,44,0.00
2005,09,04,01,45,0.00
2005,09,04,01,46,0.00
2005,09,04,01,47,0.00
2005,09,04,01,48,0.00
2005,09,04,01,49,0.00
2005,09,04,01,50,0.00
2005,09,04,01,51,0.00
2005,09,04,01,52,0.00
2005,09,04,01,53,0.00
2005,09,04,01,54,0.00
2005,09,04,01,55,0.00
2005,09,04,01,56,0.00
2005,09,04,01,57,0.00
2005,09,04,01,58,0.00
2005,09,04,01,59,0.00
2005,09,04,02,00,0.00
2005,09,04,02,01,0.00
2005,09,04,02,02,0.00
2005,09,04,02,03,0.00
2005,09,04,02,04,0.00
2005,09,04,02,05,0.00
2005,09,04,02,06,0.00
2005,09,04,02,07,0.00
2005,09,04,02,08,0.00
2005,09,04,02,09,0.00
2005,09,04,02,10,0.00
2005,09,04,02,11,0.00
2005,09,04,02,12,0.00
2005,09,04,02,13,0.00
2005,09,04,02,14,0.00
2005,09,04,02,15,0.00
2005,09,04,02,16,0.00
2005,09,04,02,17,0.00
2005,09,04,02,18,0.00
2005,09,04,02,19,0.00
2005,09,04,02,20,0.00
2005,09,04,02,21,0.00
2005,09,04,02,22,0.00
2005,09,04,02,23,0.00
2005,09,04,02,24,0.00
2005,09,04,02,25,0.00
2005,09,04,02,26,0.00
2005,09,04,02,27,0.00
2005,09,04,02,28,0.00
2005,09,04,02,29,0.00
2005,09,04,02,30,0.00
2005,09,04,02,31,0.00
2005,09,04,02,32,0.00
2005,09,04,02,33,0.00
2005,09,04,02,34,0.00
2005,09,04,02,35,0.00
2005,09,04,02,36,0.00
2005,09,04,02,37,0.00
2005,09,04,02,38,0.00
2005,09,04,02,39,0.00
2005,09,04,02,40,0.00
2005,09,04,02,41,0.00
2005,09,04,02,42,0.00
2005,09,04,02,43,0.00
2005,09,04,02,44,0.00
2005,09,04,02,45,0.00
2005,09,04,02,46,0.00
2005,09,04,02,47,0.00
2005,09,04,02,48,0.00
2005,09,04,02,49,0.00
2005,09,04,02,50,0.00
2005,09,04,02,51,0.00
2005,09,04,02,52,0.00
2005,09,04,02,53,0.00
2005,09,04,02,54,0.00
2005,09,04,02,55,0.00
2005,09,04,02,56,0.00
2005,09,04,02,57,0.00
2005,09,04,02,58,0.00
2005,09,04,02,59,0.00
2005,09,04,03,00,0.00
2005,09,04,03,01,0.00
2005,09,04,03,02,0.00
2005,09,04,03,03,0.00
2005,09,04,03,04,0.00
2005,09,04,03,05,0.00
2005,09,04,03,06,0.00
2005,09,04,03,07,0.00
2005,09,04,03,08,0.00
2005,09,04,03,09,0.00
2005,09,04,03,10,0.00
2005,09,04,03,11,0.00
2005,09,04,03,12,0.00
2005,09,04,03,13,0.00
2005,09,04,03,14,0.00
2005,09,04,03,15,0.00
2005,09,04,03,16,0.00
2005,09,04,03,17,0.00
2005,09,04,03,18,0.00
2005,09,04,03,19,0.00
2005,09,04,03,20,0.00
2005,09,04,03,21,0.00
2005,09,04,03,22,0.00
2005,09,04,03,23,0.00
2005,09,04,03,24,0.00
2005,09,04,03,25,0.00
2005,09,04,03,26,0.00
2005,09,04,03,27,0.00
2005,09,04,03,28,0.00
2005,09,04,03,29,0.00
2005,09,04,03,30,0.00
2005,09,04,03,31,0.00
2005,09,04,03,32,0.00
2005,09,04,03,33,0.00
2005,09,04,03,34,0.00
2005,09,04,03,35,0.00
2005,09,04,03,36,0.00
2005,09,04,03,37,0.00
2005,09,04,03,38,0.00
2005,09,04,03,39,0.00
2005,09,04,03,40,0.00
2005,09,04,03,41,0.00
2005,09,04,03,42,0.00
2005,09,04,03,43,0.00
2005,09,04,03,44,0.00
2005,09,04,03,45,0.00
2005,09,04,03,46,0.00
2005,09,04,03,47,0.00
2005,09,04,03,48,0.00
2005,09,04,03,49,0.00
2005,09,04,03,50,0.00
2005,09,04,03,51,0.00
2005,09,04,03,52,0.00
2005,09,04,03,53,0.00
2005,09,04,03,54,0.00
2005,09,04,03,55,0.00
2005,09,04,03,56,0.00
2005,09,04,03,57,0.00
2005,09,04,03,58,0.00
2005,09,04,03,59,0.00
2005,09,04,04,00,0.00
2005,09,04,04,01,0.00
2005,09,04,04,02,0.00
2005,09,04,04,03,0.00
2005,09,04,04,04,0.00
2005,09,04,04,05,0.00
2005,09,04,04,06,0.00
2005,09,04,04,07,0.00
2005,09,04,04,08,0.00
2005,09,04,04,09,0.00
2005,09,04,04,10,0.00
2005,09,04,04,11,0.00
2005,09,04,04,12,0.00
2005,09,04,04,13,0.00
2005,09,04,04,14,0.00
2005,09,04,04,15,0.00
2005,09,04,04,16,0.00
2005,09,04,04,17,0.00
2005,09,04,04,18,0.00
2005,09,04,04,19,0.00
2005,09,04,04,20,0.00
2005,09,04,04,21,0.00
2005,09,04,04,22,0.00
2005,09,04,04,23,0.00
2005,09,04,04,24,0.00
2005,09,04,04,25,0.00
2005,09,04,04,26,0.00
2005,09,04,04,27,0.00
2005,09,04,04,28,0.00
2005,09,04,04,29,0.00
2005,09,04,04,30,0.00
2005,09,04,04,31,0.00
2005,09,04,04,32,0.00
2005,09,04,04,33,0.00
2005,09,04,04,34,0.00
2005,09,04,04,35,0.00
2005,09,04,04,36,0.00
2005,09,04,04,37,0.00
2005,09,04,04,38,0.00
2005,09,04,04,39,0.00
2005,09,04,04,40,0.00
2005,09,04,04,41,0.00
2005,09,04,04,42,0.00
2005,09,04,04,43,0.00
2005,09,04,04,44,0.00
2005,09,04,04,45,0.00
2005,09,04,04,46,0.00
2005,09,04,04,47,0.00
2005,09,04,04,48,0.00
2005,09,04,04,49,0.00
2005,09,04,04,50,0.00
2005,09,04,04,51,0.00
2005,09,04,04,52,0.00
2005,09,04,04,53,0.00
2005,09,04,04,54,0.00
2005,09,04,04,55,0.00
2005,09,04,04,56,0.00
2005,09,04,04,57,0.00
2005,09,04,04,58,0.00
2005,09,04,04,59,0.00
2005,09,04,05,00,0.00
2005,09,04,05,01,0.00
2005,09,04,05,02,0.00
2005,09,04,05,03,0.00
2005,09,04,05,04,0.00
2005,09,04,05,05,0.00
2005,09,04,05,06,0.00
2005,09,04,05,07,0.00
2005,09,04,05,08,0.00
2005,09,04,05,09,0.00
2005,09,04,05,10,0.00
2005,09,04,05,11,0.00
2005,09,04,05,12,0.00
2005,09,04,05,13,0.00
2005,09,04,05,14,0.00
2005,09,04,05,15,0.00
2005,09,04,05,16,0.00
2005,09,04,05,17,0.00
2005,09,04,05,18,0.00
2005,09,04,05,19,0.00
2005,09,04,05,20,0.00
2005,09,04,05,21,0.00
2005,09,04,05,22,0.00
2005,09,04,05,23,0.00
2005,09,04,05,24,0.00
2005,09,04,05,25,0.00
2005,09,04,05,26,0.00
2005,09,04,05,27,0.00
2005,09,04,05,28,0.00
2005,09,04,05,29,0.00
2005,09,04,05,30,0.00
2005,09,04,05,31,0.00
2005,09,04,05,32,0.00
2005,09,04,05,33,0.00
2005,09,04,05,34,0.00
2005,09,04,05,35,0.00
2005,09,04,05,36,0.00
2005,09,04,05,37,0.00
2005,09,04,05,38,0.00
2005,09,04,05,39,0.00
2005,09,04,05,40,0.00
2005,09,04,05,41,0.00
2005,09,04,05,42,0.00
2005,09,04,05,43,0.00
2005,09,04,05,44,0.00
2005,09,04,05,45,0.00
2005,09,04,05,46,0.00
2005,09,04,05,47,0.00
2005,09,04,05,48,0.00
2005,09,04,05,49,0.00
2005,09,04,05,50,0.00
2005,09,04,05,51,0.00
2005,09,04,05,52,0.00
2005,09,04,05,53,0.00
2005,09,04,05,54,0.00
2005,09,04,05,55,0.00
2005,09,04,05,56,0.00
2005,09,04,05,57,0.00
2005,09,04,05,58,0.00
2005,09,04,05,59,0.00
2005,09,04,06,00,0.00
2005,09,04,06,01,0.00
2005,09,04,06,02,0.00
2005,09,04,06,03,0.00
2005,09,04,06,04,0.00
2005,09,04,06,05,0.00
2005,09,04,06,06,0.00
2005,09,04,06,07,0.00
2005,09,04,06,08,0.00
2005,09,04,06,09,0.00
2005,09,04,06,10,0.00
2005,09,04,06,11,0.00
2005,09,04,06,12,0.00
2005,09,04,06,13,0.00
2005,09,04,06,14,0.00
2005,09,04,06,15,0.00
2005,09,04,06,16,0.00
2005,09,04,06,17,0.00
2005,09,04,06,18,0.00
2005,09,04,06,19,0.00
2005,09,04,06,20,0.00
2005,09,04,06,21,0.00
2005,09,04,06,22,0.00
2005,09,04,06,23,0.00
2005,09,04,06,24,0.00
2005,09,04,06,25,0.00
2005,09,04,06,26,0.00
2005,09,04,06,27,0.00
2005,09,04,06,28,0.00
2005,09,04,06,29,0.00
2005,09,04,06,30,0.00
2005,09,04,06,31,0.00
2005,09,04,06,32,0.00
2005,09,04,06,33,0.00
2005,09,04,06,34,0.00
2005,09,04,06,35,0.00
2005,09,04,06,36,0.00
2005,09,04,06,37,0.00
2005,09,04,06,38,0.00
2005,09,04,06,39,0.00
2005,09,04,06,40,0.00
2005,09,04,06,41,0.00
2005,09,04,06,42,0.00
2005,09,04,06,43,0.00
2005,09,04,06,44,0.00
2005,09,04,06,45,0.00
2005,09,04,06,46,0.00
2005,09,04,06,47,0.00
2005,09,04,06,48,3.50
2005,09,04,06,49,5.00
2005,09,04,06,50,5.00
2005,09,04,06,51,5.00
2005,09,04,06,52,5.00
2005,09,04,06,53,5.00
2005,09,04,06,54,5.00
2005,09,04,06,55,5.00
2005,09,04,06,56,5.00
2005,09,04,06,57,5.00
2005,09,04,06,58,5.70
2005,09,04,06,59,7.00
2005,09,04,07,00,7.00
2005,09,04,07,01,7.00
2005,09,04,07,02,7.00
2005,09,04,07,03,7.00
2005,09,04,07,04,7.00
2005,09,04,07,05,7.00
2005,09,04,07,06,8.40
2005,09,04,07,07,9.00
2005,09,04,07,08,9.30
2005,09,04,07,09,11.00
2005,09,04,07,10,11.50
2005,09,04,07,11,12.00
2005,09,04,07,12,12.00
2005,09,04,07,13,12.10
2005,09,04,07,14,14.00
2005,09,04,07,15,14.70
2005,09,04,07,16,16.00
2005,09,04,07,17,16.00
2005,09,04,07,18,16.00
2005,09,04,07,19,16.10
2005,09,04,07,20,18.00
2005,09,04,07,21,18.00
2005,09,04,07,22,18.00
2005,09,04,07,23,18.60
2005,09,04,07,24,19.00
2005,09,04,07,25,19.00
2005,09,04,07,26,19.40
2005,09,04,07,27,21.00
2005,09,04,07,28,22.10
2005,09,04,07,29,23.00
2005,09,04,07,30,23.00
2005,09,04,07,31,25.00
2005,09,04,07,32,25.00
2005,09,04,07,33,25.40
2005,09,04,07,34,26.00
2005,09,04,07,35,26.00
2005,09,04,07,36,26.00
2005,09,04,07,37,26.00
2005,09,04,07,38,26.00
2005,09,04,07,39,26.00
2005,09,04,07,40,26.00
2005,09,04,07,41,25.30
2005,09,04,07,42,25.00
2005,09,04,07,43,25.00
2005,09,04,07,44,25.00
2005,09,04,07,45,25.00
2005,09,04,07,46,25.00
2005,09,04,07,47,25.00
2005,09,04,07,48,25.00
2005,09,04,07,49,25.00
2005,09,04,07,50,25.30
2005,09,04,07,51,26.90
2005,09,04,07,52,28.00
2005,09,04,07,53,29.60
2005,09,04,07,54,30.10
2005,09,04,07,55,32.00
2005,09,04,07,56,32.30
2005,09,04,07,57,33.00
2005,09,04,07,58,34.30
2005,09,04,07,59,35.00
2005,09,04,08,00,36.90
2005,09,04,08,01,39.20
2005,09,04,08,02,40.70
2005,09,04,08,03,42.00
2005,09,04,08,04,42.00
2005,09,04,08,05,42.00
2005,09,04,08,06,40.20
2005,09,04,08,07,40.40
2005,09,04,08,08,42.00
2005,09,04,08,09,42.00
2005,09,04,08,10,42.00
2005,09,04,08,11,42.00
2005,09,04,08,12,40.10
2005,09,04,08,13,40.50
2005,09,04,08,14,42.00
2005,09,04,08,15,42.00
2005,09,04,08,16,43.40
2005,09,04,08,17,45.70
2005,09,04,08,18,47.20
2005,09,04,08,19,49.00
2005,09,04,08,20,49.80
2005,09,04,08,21,51.00
2005,09,04,08,22,52.40
2005,09,04,08,23,53.00
2005,09,04,08,24,53.50
2005,09,04,08,25,57.80
2005,09,04,08,26,63.30
2005,09,04,08,27,68.00
2005,09,04,08,28,72.90
2005,09,04,08,29,76.60
2005,09,04,08,30,83.80
2005,09,04,08,31,89.50
2005,09,04,08,32,93.00
2005,09,04,08,33,93.00
2005,09,04,08,34,93.00
2005,09,04,08,35,92.80
2005,09,04,08,36,90.00
2005,09,04,08,37,90.30
2005,09,04,08,38,91.00
2005,09,04,08,39,92.30
2005,09,04,08,40,93.00
2005,09,04,08,41,90.80
2005,09,04,08,42,85.00
2005,09,04,08,43,79.20
2005,09,04,08,44,74.00
2005,09,04,08,45,72.00
2005,09,04,08,46,68.10
2005,09,04,08,47,65.20
2005,09,04,08,48,64.60
2005,09,04,08,49,63.00
2005,09,04,08,50,62.50
2005,09,04,08,51,62.00
2005,09,04,08,52,62.00
2005,09,04,08,53,63.00
2005,09,04,08,54,63.00
2005,09,04,08,55,63.80
2005,09,04,08,56,65.00
2005,09,04,08,57,66.40
2005,09,04,08,58,67.00
2005,09,04,08,59,70.60
2005,09,04,09,00,74.80
2005,09,04,09,01,77.80
2005,09,04,09,02,79.00
2005,09,04,09,03,81.80
2005,09,04,09,04,83.80
2005,09,04,09,05,86.30
2005,09,04,09,06,88.00
2005,09,04,09,07,87.20
2005,09,04,09,08,84.90
2005,09,04,09,09,84.00
2005,09,04,09,10,85.80
2005,09,04,09,11,88.00
2005,09,04,09,12,88.00
2005,09,04,09,13,87.20
2005,09,04,09,14,84.80
2005,09,04,09,15,84.00
2005,09,04,09,16,83.00
2005,09,04,09,17,81.40
2005,09,04,09,18,83.00
2005,09,04,09,19,83.00
2005,09,04,09,20,83.00
2005,09,04,09,21,83.00
2005,09,04,09,22,83.10
2005,09,04,09,23,84.00
2005,09,04,09,24,83.60
2005,09,04,09,25,83.00
2005,09,04,09,26,83.00
2005,09,04,09,27,83.00
2005,09,04,09,28,83.00
2005,09,04,09,29,84.00
2005,09,04,09,30,88.70
2005,09,04,09,31,91.70
2005,09,04,09,32,94.40
2005,09,04,09,33,95.00
2005,09,04,09,34,94.80
2005,09,04,09,35,92.50
2005,09,04,09,36,91.00
2005,09,04,09,37,91.00
2005,09,04,09,38,91.00
2005,09,04,09,39,91.00
2005,09,04,09,40,91.20
2005,09,04,09,41,93.00
2005,09,04,09,42,93.00
2005,09,04,09,43,91.80
2005,09,04,09,44,91.00
2005,09,04,09,45,90.20
2005,09,04,09,46,89.70
2005,09,04,09,47,88.00
2005,09,04,09,48,87.10
2005,09,04,09,49,86.00
2005,09,04,09,50,86.00
2005,09,04,09,51,84.20
2005,09,04,09,52,84.00
2005,09,04,09,53,84.00
2005,09,04,09,54,83.60
2005,09,04,09,55,83.60
2005,09,04,09,56,84.00
2005,09,04,09,57,85.90
2005,09,04,09,58,88.30
2005,09,04,09,59,90.00
2005,09,04,10,00,90.00
2005,09,04,10,01,96.50
2005,09,04,10,02,103.20
2005,09,04,10,03,106.80
2005,09,04,10,04,109.00
2005,09,04,10,05,109.70
2005,09,04,10,06,111.00
2005,09,04,10,07,111.00
2005,09,04,10,08,111.00
2005,09,04,10,09,109.30
2005,09,04,10,10,111.50
2005,09,04,10,11,114.80
2005,09,04,10,12,118.00
2005,09,04,10,13,121.50
2005,09,04,10,14,127.20
2005,09,04,10,15,134.00
2005,09,04,10,16,137.80
2005,09,04,10,17,141.40
2005,09,04,10,18,142.00
2005,09,04,10,19,143.20
2005,09,04,10,20,142.40
2005,09,04,10,21,141.90
2005,09,04,10,22,141.00
2005,09,04,10,23,141.00
2005,09,04,10,24,141.50
2005,09,04,10,25,144.80
2005,09,04,10,26,148.50
2005,09,04,10,27,153.30
2005,09,04,10,28,155.00
2005,09,04,10,29,155.00
2005,09,04,10,30,153.80
2005,09,04,10,31,151.60
2005,09,04,10,32,151.00
2005,09,04,10,33,151.70
2005,09,04,10,34,156.00
2005,09,04,10,35,156.00
2005,09,04,10,36,162.60
2005,09,04,10,37,167.00
2005,09,04,10,38,163.30
2005,09,04,10,39,159.00
2005,09,04,10,40,153.10
2005,09,04,10,41,146.50
2005,09,04,10,42,140.80
2005,09,04,10,43,135.20
2005,09,04,10,44,134.00
2005,09,04,10,45,131.40
2005,09,04,10,46,120.10
2005,09,04,10,47,118.00
2005,09,04,10,48,121.20
2005,09,04,10,49,129.90
2005,09,04,10,50,142.00
2005,09,04,10,51,157.90
2005,09,04,10,52,173.90
2005,09,04,10,53,189.00
2005,09,04,10,54,198.20
2005,09,04,10,55,203.20
2005,09,04,10,56,203.50
2005,09,04,10,57,197.50
2005,09,04,10,58,190.20
2005,09,04,10,59,182.10
2005,09,04,11,00,176.90
2005,09,04,11,01,176.00
2005,09,04,11,02,178.30
2005,09,04,11,03,182.80
2005,09,04,11,04,190.80
2005,09,04,11,05,199.90
2005,09,04,11,06,210.20
2005,09,04,11,07,218.90
2005,09,04,11,08,225.00
2005,09,04,11,09,225.00
2005,09,04,11,10,224.20
2005,09,04,11,11,224.20
2005,09,04,11,12,227.90
2005,09,04,11,13,234.90
2005,09,04,11,14,252.60
2005,09,04,11,15,275.10
2005,09,04,11,16,307.00
2005,09,04,11,17,323.00
2005,09,04,11,18,323.00
2005,09,04,11,19,356.10
2005,09,04,11,20,357.60
2005,09,04,11,21,347.30
2005,09,04,11,22,344.60
2005,09,04,11,23,343.00
2005,09,04,11,24,345.20
2005,09,04,11,25,350.00
2005,09,04,11,26,357.00
2005,09,04,11,27,357.00
2005,09,04,11,28,362.70
2005,09,04,11,29,373.50
2005,09,04,11,30,381.60
2005,09,04,11,31,383.70
2005,09,04,11,32,391.50
2005,09,04,11,33,400.40
2005,09,04,11,34,414.60
2005,09,04,11,35,420.00
2005,09,04,11,36,423.40
2005,09,04,11,37,409.80
2005,09,04,11,38,398.80
2005,09,04,11,39,392.00
2005,09,04,11,40,380.50
2005,09,04,11,41,358.60
2005,09,04,11,42,347.40
2005,09,04,11,43,337.70
2005,09,04,11,44,336.50
2005,09,04,11,45,340.80
2005,09,04,11,46,349.80
2005,09,04,11,47,362.60
2005,09,04,11,48,372.00
2005,09,04,11,49,368.50
2005,09,04,11,50,369.60
2005,09,04,11,51,388.40
2005,09,04,11,52,421.30
2005,09,04,11,53,411.50
2005,09,04,11,54,397.60
2005,09,04,11,55,397.00
2005,09,04,11,56,395.60
2005,09,04,11,57,392.00
2005,09,04,11,58,396.20
2005,09,04,11,59,399.00
2005,09,04,12,00,379.30
2005,09,04,12,01,359.20
2005,09,04,12,02,348.00
2005,09,04,12,03,334.50
2005,09,04,12,04,309.60
2005,09,04,12,05,304.00
2005,09,04,12,06,277.00
2005,09,04,12,07,271.50
2005,09,04,12,08,260.00
2005,09,04,12,09,260.00
2005,09,04,12,10,260.00
2005,09,04,12,11,261.60
2005,09,04,12,12,263.80
2005,09,04,12,13,264.00
2005,09,04,12,14,264.00
2005,09,04,12,15,264.00
2005,09,04,12,16,264.60
2005,09,04,12,17,265.00
2005,09,04,12,18,265.20
2005,09,04,12,19,267.00
2005,09,04,12,20,267.00
2005,09,04,12,21,272.00
2005,09,04,12,22,280.80
2005,09,04,12,23,283.00
2005,09,04,12,24,298.60
2005,09,04,12,25,302.60
2005,09,04,12,26,303.20
2005,09,04,12,27,299.20
2005,09,04,12,28,292.10
2005,09,04,12,29,284.00
2005,09,04,12,30,275.70
2005,09,04,12,31,273.50
2005,09,04,12,32,272.90
2005,09,04,12,33,275.20
2005,09,04,12,34,276.00
2005,09,04,12,35,277.80
2005,09,04,12,36,277.70
2005,09,04,12,37,276.60
2005,09,04,12,38,278.50
2005,09,04,12,39,281.50
2005,09,04,12,40,284.50
2005,09,04,12,41,288.10
2005,09,04,12,42,295.00
2005,09,04,12,43,295.00
2005,09,04,12,44,306.80
2005,09,04,12,45,320.00
2005,09,04,12,46,328.00
2005,09,04,12,47,337.60
2005,09,04,12,48,341.00
2005,09,04,12,49,356.90
2005,09,04,12,50,371.00
2005,09,04,12,51,378.00
2005,09,04,12,52,398.00
2005,09,04,12,53,413.40
2005,09,04,12,54,426.80
2005,09,04,12,55,437.60
2005,09,04,12,56,424.00
2005,09,04,12,57,422.70
2005,09,04,12,58,429.20
2005,09,04,12,59,450.20
2005,09,04,13,00,464.20
2005,09,04,13,01,450.00
2005,09,04,13,02,450.00
2005,09,04,13,03,454.80
2005,09,04,13,04,445.80
2005,09,04,13,05,432.00
2005,09,04,13,06,432.00
2005,09,04,13,07,436.40
2005,09,04,13,08,432.60
2005,09,04,13,09,424.30
2005,09,04,13,10,441.90
2005,09,04,13,11,497.40
2005,09,04,13,12,455.70
2005,09,04,13,13,492.00
2005,09,04,13,14,542.20
2005,09,04,13,15,557.00
2005,09,04,13,16,557.00
2005,09,04,13,17,565.20
2005,09,04,13,18,608.50
2005,09,04,13,19,583.90
2005,09,04,13,20,563.00
2005,09,04,13,21,563.00
2005,09,04,13,22,563.00
2005,09,04,13,23,684.80
2005,09,04,13,24,1154.30
2005,09,04,13,25,1116.00
2005,09,04,13,26,1116.00
2005,09,04,13,27,1116.00
2005,09,04,13,28,932.40
2005,09,04,13,29,912.00
2005,09,04,13,30,912.00
2005,09,04,13,31,912.00
2005,09,04,13,32,989.10
2005,09,04,13,33,1010.00
2005,09,04,13,34,982.20
2005,09,04,13,35,962.10
2005,09,04,13,36,947.80
2005,09,04,13,37,937.30
2005,09,04,13,38,933.00
2005,09,04,13,39,933.00
2005,09,04,13,40,933.00
2005,09,04,13,41,943.70
2005,09,04,13,42,984.00
2005,09,04,13,43,984.00
2005,09,04,13,44,733.80
2005,09,04,13,45,599.00
2005,09,04,13,46,347.80
2005,09,04,13,47,340.80
2005,09,04,13,48,350.40
2005,09,04,13,49,357.00
2005,09,04,13,50,357.00
2005,09,04,13,51,357.00
2005,09,04,13,52,677.00
2005,09,04,13,53,620.00
2005,09,04,13,54,487.00
2005,09,04,13,55,506.80
2005,09,04,13,56,520.00
2005,09,04,13,57,533.60
2005,09,04,13,58,551.00
2005,09,04,13,59,628.90
2005,09,04,14,00,596.50
2005,09,04,14,01,563.00
2005,09,04,14,02,563.00
2005,09,04,14,03,563.00
2005,09,04,14,04,563.00
2005,09,04,14,05,500.00
2005,09,04,14,06,366.50
2005,09,04,14,07,334.20
2005,09,04,14,08,325.00
2005,09,04,14,09,309.70
2005,09,04,14,10,306.10
2005,09,04,14,11,297.60
2005,09,04,14,12,295.00
2005,09,04,14,13,293.00
2005,09,04,14,14,292.00
2005,09,04,14,15,297.00
2005,09,04,14,16,302.20
2005,09,04,14,17,306.70
2005,09,04,14,18,308.50
2005,09,04,14,19,310.30
2005,09,04,14,20,320.60
2005,09,04,14,21,352.00
2005,09,04,14,22,364.20
2005,09,04,14,23,389.00
2005,09,04,14,24,434.00
2005,09,04,14,25,434.00
2005,09,04,14,26,434.00
2005,09,04,14,27,423.80
2005,09,04,14,28,366.00
2005,09,04,14,29,366.00
2005,09,04,14,30,366.00
2005,09,04,14,31,315.20
2005,09,04,14,32,356.20
2005,09,04,14,33,328.00
2005,09,04,14,34,317.40
2005,09,04,14,35,290.50
2005,09,04,14,36,325.20
2005,09,04,14,37,346.00
2005,09,04,14,38,346.00
2005,09,04,14,39,417.50
2005,09,04,14,40,357.70
2005,09,04,14,41,324.50
2005,09,04,14,42,295.10
2005,09,04,14,43,268.00
2005,09,04,14,44,233.20
2005,09,04,14,45,217.00
2005,09,04,14,46,211.00
2005,09,04,14,47,211.90
2005,09,04,14,48,216.20
2005,09,04,14,49,219.60
2005,09,04,14,50,213.90
2005,09,04,14,51,204.90
2005,09,04,14,52,194.60
2005,09,04,14,53,190.00
2005,09,04,14,54,190.00
2005,09,04,14,55,212.10
2005,09,04,14,56,250.40
2005,09,04,14,57,349.00
2005,09,04,14,58,424.00
2005,09,04,14,59,711.00
2005,09,04,15,00,986.10
2005,09,04,15,01,954.10
2005,09,04,15,02,946.40
2005,09,04,15,03,942.90
2005,09,04,15,04,957.40
2005,09,04,15,05,967.00
2005,09,04,15,06,967.00
2005,09,04,15,07,498.80
2005,09,04,15,08,397.90
2005,09,04,15,09,341.50
2005,09,04,15,10,312.00
2005,09,04,15,11,292.00
2005,09,04,15,12,281.20
2005,09,04,15,13,268.60
2005,09,04,15,14,255.90
2005,09,04,15,15,248.20
2005,09,04,15,16,244.00
2005,09,04,15,17,245.20
2005,09,04,15,18,259.50
2005,09,04,15,19,272.50
2005,09,04,15,20,292.90
2005,09,04,15,21,309.00
2005,09,04,15,22,309.00
2005,09,04,15,23,378.60
2005,09,04,15,24,425.00
2005,09,04,15,25,483.00
2005,09,04,15,26,478.40
2005,09,04,15,27,396.90
2005,09,04,15,28,373.00
2005,09,04,15,29,373.00
2005,09,04,15,30,479.40
2005,09,04,15,31,509.80
2005,09,04,15,32,532.40
2005,09,04,15,33,646.60
2005,09,04,15,34,693.50
2005,09,04,15,35,687.00
2005,09,04,15,36,687.00
2005,09,04,15,37,640.50
2005,09,04,15,38,664.50
2005,09,04,15,39,666.00
2005,09,04,15,40,666.00
2005,09,04,15,41,666.00
2005,09,04,15,42,670.20
2005,09,04,15,43,646.20
2005,09,04,15,44,670.00
2005,09,04,15,45,468.00
2005,09,04,15,46,103.00
2005,09,04,15,47,113.00
2005,09,04,15,48,113.00
2005,09,04,15,49,166.50
2005,09,04,15,50,619.20
2005,09,04,15,51,613.70
2005,09,04,15,52,608.70
2005,09,04,15,53,605.30
2005,09,04,15,54,603.30
2005,09,04,15,55,598.80
2005,09,04,15,56,598.00
2005,09,04,15,57,596.20
2005,09,04,15,58,594.00
2005,09,04,15,59,594.00
2005,09,04,16,00,594.00
2005,09,04,16,01,592.00
2005,09,04,16,02,592.00
2005,09,04,16,03,588.80
2005,09,04,16,04,583.30
2005,09,04,16,05,582.00
2005,09,04,16,06,578.40
2005,09,04,16,07,577.00
2005,09,04,16,08,578.60
2005,09,04,16,09,582.00
2005,09,04,16,10,576.30
2005,09,04,16,11,564.00
2005,09,04,16,12,559.10
2005,09,04,16,13,556.60
2005,09,04,16,14,554.60
2005,09,04,16,15,553.00
2005,09,04,16,16,549.50
2005,09,04,16,17,547.20
2005,09,04,16,18,543.10
2005,09,04,16,19,541.00
2005,09,04,16,20,540.00
2005,09,04,16,21,538.00
2005,09,04,16,22,535.40
2005,09,04,16,23,533.20
2005,09,04,16,24,531.10
2005,09,04,16,25,531.00
2005,09,04,16,26,527.40
2005,09,04,16,27,520.90
2005,09,04,16,28,519.30
2005,09,04,16,29,519.00
2005,09,04,16,30,513.00
2005,09,04,16,31,512.70
2005,09,04,16,32,511.20
2005,09,04,16,33,508.80
2005,09,04,16,34,505.20
2005,09,04,16,35,503.10
2005,09,04,16,36,498.80
2005,09,04,16,37,497.00
2005,09,04,16,38,495.60
2005,09,04,16,39,492.80
2005,09,04,16,40,490.60
2005,09,04,16,41,489.10
2005,09,04,16,42,487.00
2005,09,04,16,43,487.00
2005,09,04,16,44,483.90
2005,09,04,16,45,480.00
2005,09,04,16,46,480.00
2005,09,04,16,47,479.60
2005,09,04,16,48,470.70
2005,09,04,16,49,469.00
2005,09,04,16,50,466.60
2005,09,04,16,51,462.80
2005,09,04,16,52,461.20
2005,09,04,16,53,459.00
2005,09,04,16,54,457.00
2005,09,04,16,55,455.20
2005,09,04,16,56,450.00
2005,09,04,16,57,446.10
2005,09,04,16,58,443.40
2005,09,04,16,59,441.00
2005,09,04,17,00,438.40
2005,09,04,17,01,435.30
2005,09,04,17,02,434.00
2005,09,04,17,03,432.00
2005,09,04,17,04,431.00
2005,09,04,17,05,427.00
2005,09,04,17,06,423.80
2005,09,04,17,07,419.30
2005,09,04,17,08,417.50
2005,09,04,17,09,414.40
2005,09,04,17,10,411.40
2005,09,04,17,11,410.00
2005,09,04,17,12,409.50
2005,09,04,17,13,406.00
2005,09,04,17,14,403.00
2005,09,04,17,15,401.70
2005,09,04,17,16,401.00
2005,09,04,17,17,396.70
2005,09,04,17,18,393.40